Theta_e
314 316 317 318 318 316 316 316 316 315 314 315 316 316 316 317 317 315 313 311 310 313 315 315 315 316 315 312 309 306 304 305 305 304 304 302 302 302 302 303 304 305 306 307 308 308 308 309 309 310 311 313 314 315 316 315 315 316 317 317 316 316 316 316 317 317 316 316 317 317 318 318 318 318 318 317 316 315 315 316 316 317 317 317 317 316
313 317 318 318 317 315 315 314 313 313 313 314 315 316 316 316 317 314 312 310 309 312 315 314 313 315 315 312 308 306 306 306 306 305 304 303 302 301 301 302 304 305 306 307 307 307 308 308 309 310 311 312 314 315 316 315 315 316 316 315 315 316 316 316 316 315 314 314 315 314 315 316 316 316 315 313 312 310 310 309 309 309 310 310 309 308
314 317 317 315 314 312 312 311 312 313 313 314 314 315 316 316 316 314 311 309 309 312 314 313 312 315 315 310 306 306 307 306 304 304 303 302 302 301 301 302 303 305 306 307 307 307 307 308 308 310 311 312 313 315 316 316 315 315 315 314 314 315 314 313 312 311 311 311 311 310 311 312 311 310 309 307 306 305 305 305 305 305 305 305 305 305
316 316 315 313 312 311 310 309 311 312 312 314 314 315 316 316 316 317 313 309 309 310 312 312 312 315 315 311 306 304 304 303 301 301 301 301 301 301 301 302 303 305 306 306 306 306 306 307 308 309 311 311 312 313 314 314 313 312 311 310 310 309 308 307 307 306 306 306 306 306 306 306 306 305 305 304 304 303 303 303 304 304 303 303 304 303
317 313 310 311 312 313 312 310 310 312 313 314 314 315 317 316 315 317 314 310 310 310 309 311 315 317 316 315 310 304 301 302 300 300 300 300 300 301 302 303 304 305 305 305 305 306 306 306 307 309 310 310 310 310 310 309 308 307 306 306 305 305 304 304 304 304 304 304 304 304 304 304 304 304 303 303 302 302 302 302 302 302 302 302 302 302
316 311 309 311 311 313 314 312 312 314 315 315 315 314 315 315 315 314 313 312 314 315 312 312 319 321 316 315 313 306 302 303 301 300 301 300 300 300 301 302 303 304 304 304 305 305 305 306 306 307 307 307 307 306 305 305 304 304 303 303 303 303 303 303 303 303 303 303 303 303 303 303 303 302 302 302 301 301 301 300 300 300 300 300 300 300
314 309 310 312 312 313 314 313 314 314 316 317 316 314 313 313 314 314 314 314 317 318 312 310 318 321 317 316 313 307 304 304 302 302 302 301 300 300 300 300 302 302 303 304 304 304 305 304 304 304 304 304 304 303 303 303 302 302 302 302 303 303 302 302 302 302 302 302 302 302 302 302 302 302 302 301 301 300 300 299 299 298 298 298 298 298
312 310 312 313 313 313 314 315 314 313 316 318 315 313 313 312 314 314 314 315 316 316 312 310 314 317 317 317 311 306 307 306 303 302 302 302 301 300 300 300 301 301 302 303 303 303 303 303 303 303 302 302 302 302 302 302 302 302 302 302 302 302 302 301 301 301 301 301 301 301 301 301 301 301 301 300 300 299 298 297 297 297 296 296 296 296
313 313 314 314 314 314 315 317 314 312 316 317 311 310 311 312 314 314 314 315 313 314 316 314 313 315 318 316 309 306 309 310 308 304 303 302 301 300 300 300 301 301 302 302 303 303 302 302 302 302 302 302 302 302 302 302 302 301 301 301 301 301 301 301 301 300 300 300 300 300 300 300 300 300 299 299 298 297 296 296 296 295 295 295 294 294
312 311 312 314 315 315 315 313 311 314 316 312 308 309 310 311 312 312 314 314 312 314 318 317 314 316 320 317 313 310 311 313 312 307 304 304 302 301 300 300 300 300 301 302 302 302 301 301 301 301 301 302 301 301 301 301 301 301 301 301 301 301 300 300 300 300 300 300 299 299 299 299 299 298 297 297 296 295 295 295 295 294 294 294 293 293
309 307 309 312 314 313 311 307 306 311 312 309 310 311 311 310 310 311 312 312 314 316 318 317 315 316 318 318 317 315 313 313 312 307 305 304 302 301 300 300 300 300 301 301 301 301 301 301 301 301 301 301 301 301 301 301 301 300 300 300 300 300 300 300 299 299 299 299 299 298 298 298 297 297 296 296 295 295 294 294 294 294 293 293 293 293
309 309 310 310 309 308 309 307 305 305 306 309 313 313 314 314 311 312 312 312 317 320 315 311 311 314 317 318 317 316 312 310 311 308 306 304 302 301 300 300 300 300 300 300 300 300 300 301 301 301 301 301 301 301 300 300 300 300 300 300 300 300 299 299 299 299 299 298 298 297 297 297 296 296 295 295 295 294 294 294 293 293 293 293 292 292
312 313 311 310 308 308 312 312 308 306 306 310 313 314 318 318 315 316 316 314 318 318 310 307 309 313 315 316 316 315 311 308 309 308 306 304 303 302 300 300 300 300 300 300 300 300 300 301 301 301 301 301 300 300 300 300 299 299 299 299 299 299 299 299 298 298 298 297 297 297 296 296 296 295 295 295 295 294 294 294 293 293 293 292 292 292
316 315 311 311 310 309 313 314 313 311 309 311 314 316 320 320 318 320 318 315 317 314 307 306 310 313 315 315 314 312 309 305 304 304 305 304 303 302 301 301 301 300 300 300 300 300 301 301 301 301 301 300 300 300 300 299 299 299 299 298 299 299 298 298 297 297 297 297 296 296 296 296 295 295 295 295 294 294 294 293 293 292 292 292 292 292
321 320 314 313 313 311 312 315 316 314 311 311 314 316 318 319 320 321 319 318 317 313 307 307 311 315 316 313 308 305 303 301 301 301 301 303 302 302 301 301 301 300 300 300 300 300 301 301 301 300 300 300 300 300 299 299 299 299 298 298 298 298 298 297 297 297 296 296 296 295 295 295 295 295 295 295 294 294 293 293 293 293 292 292 292 292
320 321 315 311 310 310 312 313 313 314 313 311 311 313 316 317 317 315 313 313 312 312 310 309 312 314 314 309 302 301 301 300 301 300 300 302 302 301 301 301 300 300 300 300 300 300 300 300 300 300 300 300 300 299 299 299 298 298 298 297 297 298 297 297 296 296 296 296 296 295 295 295 295 294 294 294 294 293 293 293 293 292 292 292 292 291
319 318 312 308 308 308 309 310 311 313 315 311 310 313 314 313 314 313 311 308 308 315 316 312 313 312 312 311 304 301 303 302 301 301 301 301 301 300 301 300 300 300 300 300 300 300 300 300 300 300 300 300 300 299 299 299 298 298 298 297 297 297 297 296 296 296 295 295 295 295 295 294 294 294 293 293 293 293 292 292 292 291 291 291 290 290
319 317 311 309 311 307 304 308 309 309 311 311 313 314 312 311 313 314 316 313 311 318 317 313 314 314 314 315 308 304 305 304 302 301 301 300 300 300 300 300 301 300 300 300 300 300 301 300 300 300 300 300 299 299 299 298 298 297 297 297 297 297 296 296 295 295 295 295 294 294 294 293 293 293 293 293 292 292 291 291 291 290 290 290 289 289
317 318 313 308 310 308 304 308 311 308 307 310 311 312 313 315 315 314 316 317 317 318 316 313 313 313 315 316 312 309 309 307 304 302 301 301 300 300 301 301 300 300 300 300 301 300 301 301 300 300 300 299 299 299 298 298 297 297 296 296 296 295 295 295 295 295 294 294 294 293 293 292 292 292 292 291 291 291 291 290 290 290 289 289 289 288
314 318 317 308 307 308 306 310 313 311 307 307 309 310 311 313 315 314 314 316 317 318 316 315 313 313 314 315 314 313 312 309 307 303 301 302 301 301 301 301 301 301 301 301 301 301 301 301 300 300 300 299 299 298 298 297 297 296 295 295 295 294 294 294 294 294 293 293 293 292 292 292 291 291 291 290 290 290 290 290 289 289 289 288 288 288
312 316 317 310 306 309 310 311 314 314 310 309 311 312 311 311 312 313 313 312 314 317 316 317 317 315 313 313 314 314 313 311 308 304 304 304 303 302 301 301 302 302 301 302 302 301 301 301 300 300 300 299 298 298 297 297 296 295 295 294 294 294 294 294 293 293 293 292 292 291 291 291 290 290 290 290 290 290 289 289 289 289 288 288 288 288
313 314 316 312 308 311 312 311 311 312 312 312 312 313 313 313 312 315 316 312 311 314 315 315 318 317 311 309 311 312 312 310 308 307 306 305 304 303 302 302 303 302 302 302 302 301 301 301 300 300 299 299 298 297 297 296 295 295 294 294 294 294 293 293 293 292 292 291 291 291 290 290 290 290 290 289 289 289 289 289 289 289 288 288 288 288
313 314 316 313 311 312 310 307 305 307 310 311 311 312 314 314 314 317 319 314 310 311 312 311 315 316 309 304 306 307 307 306 306 307 307 306 305 304 303 302 302 302 302 302 301 301 300 300 300 300 299 298 298 297 297 296 295 294 294 294 294 293 293 292 292 291 291 291 290 290 290 290 290 289 289 289 289 289 289 289 289 289 288 288 288 288
312 314 316 314 312 311 309 307 306 306 308 310 311 311 313 314 315 316 316 314 313 313 312 312 316 316 309 303 304 304 302 302 303 304 305 305 304 303 302 302 301 301 301 301 301 300 300 300 300 300 299 298 297 297 296 295 295 294 294 293 293 293 292 291 291 291 290 290 290 290 290 290 290 289 289 289 289 289 289 289 289 288 288 288 288 288
314 315 316 315 315 314 313 312 310 309 309 310 312 311 311 313 314 314 313 312 314 316 315 315 318 316 310 305 304 302 301 302 302 302 303 304 303 303 302 302 301 301 300 300 300 300 300 300 300 300 299 298 298 297 296 296 295 294 294 293 293 292 292 291 291 290 290 290 289 289 290 290 289 289 289 289 289 289 289 289 288 288 288 288 288 288
315 317 316 317 318 319 318 317 316 314 311 310 313 312 311 312 313 313 313 313 315 317 316 317 318 315 310 307 306 305 304 305 304 303 302 303 303 303 302 302 302 301 300 300 300 300 300 300 300 300 300 299 298 298 297 296 296 295 294 293 292 292 291 291 290 290 289 289 289 290 290 290 289 289 289 289 289 289 288 288 288 288 288 288 287 287
315 317 317 317 319 320 319 318 317 316 313 312 313 312 311 312 312 313 314 315 315 315 315 316 317 315 311 309 309 308 307 308 307 304 302 303 303 302 302 302 302 302 302 301 300 301 301 300 301 300 300 299 298 298 297 297 296 295 294 293 292 291 291 290 290 289 289 289 289 290 290 290 289 289 289 289 289 289 288 288 288 288 288 287 287 287
314 316 316 317 318 318 318 317 316 316 315 314 314 313 312 311 312 313 314 315 315 314 316 316 315 316 313 310 311 310 309 310 308 305 304 305 305 303 302 301 301 301 301 300 300 300 301 301 301 300 300 299 298 297 297 296 296 295 294 293 292 291 290 290 289 289 289 289 289 290 290 290 289 289 289 289 289 288 288 288 288 288 287 287 287 287
315 315 316 317 316 316 316 315 314 315 316 315 314 314 312 311 311 313 314 314 315 315 317 316 314 316 314 311 312 312 310 310 309 307 307 307 305 303 301 300 301 302 301 301 301 301 301 301 301 300 300 299 298 297 297 296 295 294 293 292 291 291 290 289 289 288 288 289 290 290 290 290 289 289 289 289 289 288 288 288 288 287 287 287 287 287
315 315 316 316 315 315 315 314 313 313 315 315 314 314 313 312 311 312 313 313 314 315 316 315 314 314 314 312 313 311 309 309 308 307 306 305 303 302 301 301 302 303 303 303 303 303 302 301 300 300 300 298 297 297 296 296 295 294 293 292 292 291 290 289 288 288 289 289 290 290 290 289 289 289 289 289 288 288 288 288 288 287 287 287 287 287
313 315 316 315 315 315 315 314 313 313 314 315 315 314 313 312 311 311 312 313 313 313 314 313 312 313 312 312 311 308 307 307 306 305 304 303 302 302 302 303 304 305 305 305 305 304 302 300 299 299 299 298 297 297 296 296 295 294 294 294 293 292 290 289 288 288 289 289 290 290 289 289 289 289 289 289 288 288 288 288 288 287 287 287 287 287
312 313 313 313 316 317 314 312 313 312 312 314 315 314 311 310 310 310 310 311 312 313 313 312 313 313 311 309 307 304 304 305 305 304 303 303 304 304 304 305 306 306 307 307 306 304 302 300 299 298 298 298 298 297 298 297 295 294 295 294 293 292 291 289 288 288 289 289 290 290 289 289 289 289 289 289 288 288 288 288 288 287 287 287 287 287
311 312 312 313 318 316 309 308 311 311 313 316 316 315 312 310 311 310 310 311 311 311 312 313 313 313 310 308 306 304 304 306 306 305 305 305 305 305 306 306 306 307 307 306 305 304 302 301 300 299 299 298 298 299 299 298 296 295 296 296 294 293 291 289 288 288 289 289 290 290 289 289 289 289 289 289 288 288 288 288 288 287 287 287 287 287
310 312 312 313 316 313 305 305 309 313 317 315 310 310 312 312 312 311 311 311 310 310 312 312 312 313 311 309 308 308 307 306 306 306 307 306 306 305 305 306 306 306 305 304 303 302 302 301 301 300 299 299 299 299 299 298 298 297 297 296 294 293 291 290 289 288 288 289 290 289 289 289 289 289 289 289 288 288 288 288 288 287 287 287 287 287
309 311 311 312 312 308 304 307 313 316 315 308 301 301 306 310 311 312 311 311 311 310 311 310 310 311 309 307 307 307 306 306 305 306 306 305 305 305 304 304 304 304 303 303 303 302 302 301 301 300 300 299 299 299 299 299 299 298 297 295 293 292 292 291 289 288 289 289 290 290 289 289 289 289 289 289 288 288 288 288 288 287 287 287 287 287
309 310 310 310 308 305 306 310 314 314 311 304 298 297 301 306 309 310 311 311 310 310 309 309 309 307 305 303 303 303 303 303 303 303 304 304 303 303 302 302 302 302 301 301 300 300 300 300 300 300 299 299 299 299 299 299 298 298 297 296 294 292 292 291 290 288 288 289 290 290 290 289 290 289 289 288 288 288 288 288 288 287 287 287 287 287
308 310 310 310 308 307 308 310 310 311 311 308 303 301 303 307 308 309 311 310 308 307 307 307 308 306 303 300 300 300 300 300 300 301 303 303 302 301 301 301 300 299 298 298 298 298 298 298 298 298 298 298 298 298 298 298 297 297 297 296 294 293 292 292 290 289 288 289 290 290 290 290 290 289 289 288 288 288 288 288 287 287 287 287 287 287
305 308 310 311 310 308 309 309 310 311 312 312 308 303 301 303 305 307 310 309 305 304 305 306 308 307 302 298 297 298 299 300 301 302 302 301 300 300 299 299 298 298 297 297 297 297 297 297 297 297 297 297 297 297 297 296 296 296 296 296 295 294 293 292 291 289 288 289 290 291 290 290 290 290 289 288 288 288 288 287 287 287 287 287 286 286
303 305 307 310 310 309 309 311 312 312 312 311 307 299 296 299 303 304 308 308 303 299 301 305 307 306 301 297 296 297 299 301 302 301 300 299 298 298 298 297 297 297 297 297 297 297 297 297 297 297 297 297 297 296 295 295 295 295 295 296 296 295 293 293 292 291 289 289 289 290 290 290 290 289 289 288 288 288 287 287 287 287 287 286 286 286
304 304 306 309 311 310 310 311 311 311 310 306 301 296 295 298 301 305 308 307 301 296 298 303 305 303 301 298 296 298 300 301 301 300 298 297 297 296 296 296 297 297 297 297 297 296 296 296 296 296 295 295 294 294 294 293 293 294 294 295 296 295 294 294 293 291 290 289 289 289 290 290 290 289 289 288 288 288 287 287 287 287 287 286 286 286
303 304 305 308 310 310 311 311 311 310 307 302 297 295 295 298 302 306 308 303 297 295 298 302 302 301 300 298 297 298 300 299 298 297 296 296 296 296 296 296 296 296 296 296 295 294 294 294 293 293 292 292 292 292 293 293 293 293 294 295 295 295 294 293 292 291 290 289 289 289 289 290 290 289 288 288 288 288 287 287 287 287 286 286 286 286
304 304 304 306 308 309 310 310 310 311 305 298 295 294 295 300 305 305 302 298 297 298 299 300 300 299 299 298 298 298 298 297 296 295 295 295 295 295 295 295 295 295 294 293 293 292 292 292 292 292 292 291 292 292 292 293 293 293 294 294 294 293 292 292 291 290 290 290 290 290 290 290 290 289 288 288 288 288 287 287 287 287 286 286 286 286
305 305 305 306 307 307 307 308 310 311 303 296 295 296 296 301 304 301 296 296 297 298 299 298 298 297 297 298 297 297 297 296 295 295 294 294 294 294 294 294 293 293 293 292 292 292 292 292 292 292 291 291 291 292 292 292 292 292 293 293 293 292 291 291 290 290 290 290 290 290 290 289 289 289 288 288 288 288 287 287 287 286 286 286 286 286
305 306 306 306 307 307 308 308 308 305 299 296 298 300 299 300 301 299 297 296 296 297 298 297 297 296 296 296 296 296 296 295 295 294 294 294 293 293 293 293 293 293 292 292 292 292 292 292 292 292 291 291 291 291 292 292 292 292 292 292 292 291 291 290 290 290 290 290 290 290 289 289 289 288 288 288 288 288 287 287 287 286 286 286 285 286
305 304 303 304 305 304 305 304 301 298 296 296 298 299 298 299 299 298 298 297 296 297 297 296 296 296 296 296 295 295 295 295 294 294 294 294 293 293 293 293 293 292 292 292 292 292 292 292 292 292 291 291 291 291 291 292 292 292 292 292 291 291 291 290 290 290 290 290 289 289 289 289 289 288 288 288 288 288 287 287 287 286 285 285 285 285
297 296 298 301 301 300 298 297 296 295 296 297 297 297 297 298 298 297 298 297 297 297 296 296 296 296 295 295 295 294 294 294 294 294 294 294 293 293 293 293 292 292 292 292 292 292 292 292 292 291 291 291 291 291 291 291 292 292 292 292 291 291 291 290 290 290 290 290 289 289 289 289 289 288 288 288 288 288 287 287 286 286 285 285 285 285
294 293 296 298 300 300 299 296 293 294 295 295 296 297 297 297 297 297 297 296 296 296 296 295 295 295 295 295 295 294 294 294 293 294 294 293 293 293 293 293 292 292 292 292 292 292 292 292 292 292 291 291 291 291 291 291 291 292 292 291 291 291 291 290 290 290 290 290 290 289 289 289 288 288 288 288 288 287 287 287 286 285 285 285 285 285
296 295 296 297 297 297 296 293 291 292 294 294 295 297 297 297 297 296 296 296 296 295 295 295 295 295 294 294 294 294 294 293 293 293 293 293 293 293 293 293 292 292 292 292 292 292 292 292 292 292 291 291 291 291 291 291 291 291 291 291 291 291 291 290 290 290 290 290 290 289 289 289 288 288 288 288 288 287 287 287 286 285 285 285 285 285
296 296 296 295 295 293 292 291 291 292 294 294 295 297 297 297 296 296 296 296 296 295 295 295 294 294 294 294 294 294 294 293 293 293 293 293 293 293 293 293 292 292 292 292 292 292 292 291 292 291 291 291 291 291 291 291 291 291 291 291 291 291 291 291 290 290 290 290 290 289 289 289 288 288 288 288 288 287 287 286 286 285 285 285 285 285
295 296 294 294 295 295 294 293 293 294 295 295 295 297 297 297 296 296 295 295 295 295 295 295 295 295 294 294 294 294 293 293 293 293 293 293 293 293 293 292 292 292 292 291 291 291 291 291 291 291 291 291 291 291 291 291 291 291 291 291 291 291 291 290 290 290 290 290 290 289 289 288 288 288 288 288 287 287 287 286 285 285 285 285 285 285
295 296 295 295 297 296 295 294 294 295 296 296 295 296 296 296 296 295 295 295 295 295 295 295 295 294 294 294 294 293 293 293 293 293 292 292 292 293 292 292 292 292 292 291 291 291 291 291 291 291 291 291 291 291 291 291 291 291 291 291 291 290 290 290 290 290 290 289 289 289 289 288 288 288 287 287 287 287 286 286 285 285 285 285 285 284
Wind_Speed
6 4 6 8 7 9 12 11 5 3 4 2 2 2 5 6 6 1 2 1 1 4 8 7 10 12 9 7 8 6 5 6 7 7 7 7 8 8 8 9 10 11 11 11 10 9 8 8 8 9 9 10 11 12 12 12 13 14 14 13 14 14 12 11 10 8 7 6 6 5 5 6 6 6 5 3 2 2 2 1 0 2 2 3 4 5
5 6 10 8 3 5 8 7 3 3 3 2 3 4 5 7 7 2 2 1 1 3 6 3 6 13 11 4 8 6 6 6 7 7 6 7 7 8 9 10 10 11 12 12 11 10 9 9 10 10 11 11 13 13 13 13 15 15 14 12 13 13 11 10 9 8 7 7 7 6 7 7 8 7 5 5 6 6 6 6 5 5 5 4 4 4
5 9 9 4 6 5 3 4 6 5 4 3 3 4 5 4 4 3 2 2 2 4 4 1 5 12 9 4 7 7 7 6 7 7 6 6 6 6 8 9 11 12 13 13 12 12 11 12 12 12 13 13 14 15 14 14 15 15 14 13 14 13 12 12 12 12 12 12 11 10 11 10 9 10 9 10 11 11 10 10 11 11 11 9 9 9
5 7 5 7 9 7 4 5 7 5 4 5 4 5 6 2 2 4 1 3 2 2 2 3 5 10 8 4 7 7 7 5 6 7 7 7 6 6 9 11 12 14 14 15 14 14 15 15 15 15 16 16 17 17 17 16 16 16 16 17 17 17 18 18 18 18 18 18 17 16 15 13 13 14 14 14 14 13 13 13 13 13 13 12 12 12
5 1 2 9 10 8 6 6 8 6 5 7 7 8 8 5 6 6 1 2 3 3 2 3 6 9 8 7 5 6 6 5 5 5 7 8 9 10 11 13 15 16 17 17 17 18 18 19 19 19 20 20 20 20 20 20 20 20 21 21 21 21 22 22 21 20 19 18 18 16 15 14 14 15 14 13 13 13 13 14 14 14 14 13 12 12
5 4 7 9 7 8 7 6 9 8 5 5 9 12 12 9 8 5 2 0 4 4 3 2 7 5 2 5 5 4 5 5 4 5 7 7 10 12 12 14 17 18 19 20 20 21 22 22 22 23 23 23 23 23 23 23 23 23 23 23 22 22 22 22 21 19 18 17 16 14 13 13 12 13 12 12 12 12 12 12 13 13 13 12 12 12
2 5 6 6 6 8 7 6 8 8 6 5 4 9 12 10 6 5 5 4 4 3 1 1 6 5 1 3 3 4 4 6 5 6 9 9 11 13 13 15 18 19 21 22 23 25 25 26 26 26 26 26 26 26 25 24 23 23 22 22 21 21 21 20 20 18 16 15 14 12 11 11 9 9 10 10 10 10 10 11 11 12 11 11 11 11
4 6 4 5 6 6 7 6 7 9 7 3 1 3 8 8 8 8 7 6 3 2 0 3 4 5 6 3 3 4 4 6 8 9 10 12 13 13 14 18 21 22 23 25 26 28 28 28 28 28 27 27 26 25 24 23 22 21 21 20 20 20 20 19 18 16 14 13 12 9 8 7 7 7 9 10 9 9 9 9 9 10 10 11 10 11
4 7 8 8 7 6 6 2 7 13 7 1 2 1 4 4 5 6 6 5 2 1 4 5 4 4 7 4 3 3 4 8 11 12 13 15 15 15 17 20 22 24 26 28 29 29 29 29 28 28 27 26 25 24 23 21 21 20 19 18 18 18 18 17 16 14 12 10 8 7 5 6 7 8 9 10 9 9 8 7 8 8 9 9 10 10
2 3 5 8 7 6 3 4 3 10 5 3 5 5 6 4 4 3 4 3 2 3 8 8 9 6 6 5 5 3 4 9 8 10 13 16 17 17 19 23 24 26 28 29 30 30 29 29 28 27 26 25 24 22 21 20 19 18 18 17 16 17 17 16 15 12 11 9 7 7 6 6 8 9 10 9 9 8 7 6 7 7 8 8 9 9
2 1 1 4 4 3 6 6 4 1 4 9 7 6 7 5 4 2 1 2 2 6 7 8 12 9 6 4 8 5 3 4 4 7 11 15 18 19 20 25 27 28 30 30 30 30 29 29 28 26 26 24 23 22 20 19 18 17 16 15 15 15 15 15 13 11 10 9 7 7 7 7 9 10 9 8 8 7 7 6 7 7 8 8 8 9
1 2 1 3 4 6 7 5 5 4 3 5 4 5 5 2 3 2 2 3 5 5 2 1 5 9 8 4 5 4 2 2 3 7 12 17 19 21 23 28 30 30 31 31 31 31 30 29 28 27 26 25 23 22 20 19 17 16 15 14 14 15 15 14 13 11 9 9 7 7 7 7 9 9 8 7 6 6 6 6 6 7 7 8 8 9
3 4 2 2 6 8 6 5 4 2 2 3 3 7 6 3 3 4 3 4 6 4 2 2 2 5 8 7 7 4 3 3 2 2 9 19 22 22 26 31 33 33 33 32 32 32 32 30 29 28 27 25 24 22 21 19 18 16 15 14 12 14 15 13 12 10 9 8 8 8 7 7 8 8 6 5 4 4 4 5 5 6 6 7 8 9
3 2 4 4 4 9 11 7 5 4 5 7 7 8 7 5 4 5 4 3 4 1 2 1 3 3 5 6 9 5 2 3 3 2 5 16 23 25 30 35 34 34 34 33 33 33 32 31 30 28 27 26 24 23 21 20 18 17 16 14 12 13 14 12 11 10 9 8 8 8 7 7 7 6 5 4 3 3 3 4 4 5 6 7 8 10
6 3 7 8 5 12 14 7 4 6 8 7 4 4 5 5 4 4 4 3 2 2 2 1 3 4 3 1 1 2 3 4 2 2 5 12 20 26 33 36 35 35 35 34 34 34 32 31 29 28 27 26 24 23 21 20 19 17 16 14 12 12 13 12 11 10 9 8 8 8 7 7 6 5 3 2 1 2 2 3 5 6 7 9 10 11
6 5 4 3 4 13 13 4 4 7 6 4 1 1 4 4 2 0 1 0 2 1 2 4 3 3 2 2 3 2 1 3 2 2 5 11 19 27 33 36 36 37 36 35 35 34 33 31 30 29 27 26 25 23 22 20 19 17 16 15 13 12 12 12 12 11 10 9 8 8 8 6 5 4 3 2 0 1 2 3 5 6 7 8 9 11
4 2 2 3 2 6 5 3 4 3 4 4 3 5 3 2 1 1 0 2 1 5 3 5 5 3 1 2 3 3 2 4 4 4 6 10 17 24 31 36 38 39 38 37 36 35 34 32 31 29 28 27 25 24 22 20 19 17 16 15 14 13 13 13 13 11 11 10 9 8 8 6 6 5 3 2 2 2 3 4 5 6 7 8 9 10
4 1 1 2 2 1 1 3 3 2 2 5 5 6 3 1 1 1 3 1 2 6 3 4 8 6 5 3 2 3 4 6 6 7 8 10 15 21 29 37 40 40 40 38 37 36 35 34 32 31 29 27 25 24 23 21 20 18 16 15 14 14 13 13 13 12 11 10 9 9 8 7 6 5 3 3 3 3 4 4 5 7 8 9 9 10
4 3 1 1 1 2 2 3 3 0 1 1 2 3 3 3 4 3 3 3 4 6 4 4 6 6 7 6 4 6 9 10 10 9 9 12 17 21 27 37 41 41 41 40 39 38 37 36 34 32 30 28 27 25 24 23 21 20 18 17 15 14 14 14 13 13 12 11 11 10 9 8 6 5 5 4 4 4 4 5 6 7 8 9 10 10
3 4 2 1 1 2 3 5 8 7 2 2 1 3 1 2 3 3 3 2 3 5 3 2 3 5 7 8 10 12 11 12 13 10 10 15 21 25 30 39 44 44 45 44 42 41 40 38 36 33 31 30 28 27 25 24 23 22 21 19 18 17 16 15 14 14 13 12 12 10 9 8 7 6 6 5 4 4 4 5 6 7 8 9 10 10
2 3 3 2 1 3 5 7 8 9 8 6 7 7 5 2 0 2 2 1 2 4 3 4 5 3 4 4 9 12 9 10 14 12 11 16 23 30 36 43 48 49 49 47 45 44 43 40 36 34 32 30 30 29 27 26 25 24 23 21 20 19 17 17 16 15 14 13 12 11 10 9 8 7 7 5 4 4 5 6 7 8 9 10 11 12
4 3 3 4 4 6 4 1 2 3 5 6 8 10 11 8 4 4 5 3 1 3 2 3 5 2 3 1 3 4 2 5 10 12 12 19 29 35 38 43 48 50 51 49 48 46 44 41 38 35 34 33 32 31 29 28 27 26 24 23 22 20 18 18 17 16 15 14 13 12 11 10 9 8 7 5 5 5 6 7 8 10 12 13 13 14
3 2 3 2 4 4 2 2 2 4 3 3 4 6 7 7 8 7 7 4 3 2 0 0 4 3 2 1 0 1 2 1 6 10 9 16 27 32 34 38 43 47 49 49 48 47 44 41 38 37 36 35 34 33 31 30 29 27 26 24 23 21 20 19 18 17 16 15 14 13 12 11 10 9 7 6 6 6 7 9 11 12 13 14 15 15
4 2 4 2 0 0 0 0 0 2 1 4 6 4 5 7 7 5 3 3 5 5 4 2 5 3 2 1 1 1 1 0 6 11 10 11 19 25 28 33 38 42 46 47 47 46 42 40 39 38 38 37 36 35 34 32 30 29 27 26 25 23 22 21 20 19 18 17 16 14 13 12 11 9 8 6 6 7 8 10 12 13 14 15 15 15
8 4 5 5 2 3 3 3 4 4 5 6 4 4 7 8 5 2 2 2 5 7 10 6 7 3 3 2 2 1 1 2 4 10 13 13 16 21 25 30 35 39 42 45 46 45 43 42 41 41 41 40 39 37 36 34 32 30 29 28 26 25 24 23 22 21 20 19 17 16 14 13 11 9 8 7 7 8 10 11 13 14 15 15 15 16
8 2 7 9 8 9 7 6 6 5 4 3 2 6 10 12 11 6 3 5 6 6 11 10 7 2 2 1 2 2 1 2 4 8 13 16 18 21 24 28 34 38 41 44 46 46 45 45 44 44 44 43 42 39 37 35 33 32 31 29 28 27 25 24 23 22 22 20 19 17 15 14 12 10 8 7 8 9 10 12 14 14 15 16 16 17
3 2 9 12 12 9 4 2 3 7 7 9 9 11 13 15 15 9 5 7 5 5 8 12 8 4 4 5 5 5 4 4 5 6 10 17 21 23 23 25 31 36 39 42 44 47 48 48 47 47 47 45 43 41 38 37 35 33 32 30 29 28 27 26 25 24 23 22 20 18 16 14 12 10 9 8 9 10 11 13 14 15 16 16 17 18
2 6 13 13 15 8 2 2 2 9 14 16 15 14 14 14 15 14 13 9 7 5 9 9 9 9 9 10 9 8 7 5 4 6 13 19 22 23 22 22 26 32 36 39 42 46 49 51 51 50 49 47 45 42 40 38 36 34 32 31 30 29 29 28 27 26 25 23 21 19 17 14 12 10 9 9 9 10 12 13 15 15 16 17 18 19
2 8 10 10 15 10 1 1 4 7 11 12 15 18 16 16 17 18 18 11 10 10 11 6 13 14 11 12 10 8 9 11 11 14 19 20 21 21 21 21 24 28 33 36 40 44 49 52 53 52 51 49 47 44 41 39 37 35 33 31 30 30 30 30 29 28 26 24 21 19 17 14 12 10 9 9 10 11 13 14 15 15 16 18 19 20
3 6 6 6 11 12 6 3 2 4 5 5 12 17 17 18 19 18 18 14 12 17 12 6 10 13 7 10 8 9 14 16 15 16 18 18 18 19 21 22 23 26 29 32 35 39 44 50 53 53 52 50 47 44 43 41 39 37 34 31 31 31 32 31 31 30 28 25 22 19 17 14 12 11 10 10 11 13 14 15 16 16 17 19 20 21
5 6 4 5 7 10 7 5 2 3 3 2 8 12 11 13 14 14 15 13 12 16 10 4 7 9 4 8 7 10 14 13 12 14 16 17 18 18 19 21 23 25 27 28 30 34 40 46 51 52 51 48 46 45 43 42 40 37 34 33 33 33 33 33 33 31 29 25 22 20 17 15 13 12 11 11 12 14 15 16 17 17 18 20 21 21
6 4 4 5 8 7 5 6 5 2 2 5 13 13 10 10 10 11 11 9 10 12 9 6 9 7 5 7 7 8 12 11 11 14 17 17 16 16 18 20 22 24 25 26 30 33 37 42 46 50 49 46 45 44 44 43 41 37 36 35 34 33 34 35 34 33 30 26 23 21 18 16 15 13 13 12 14 15 16 17 18 18 19 20 22 22
7 5 4 6 8 4 1 5 7 4 1 7 14 12 14 14 12 10 8 9 11 12 10 9 10 5 5 7 7 6 8 10 12 16 18 18 17 17 18 18 19 21 24 27 30 29 30 33 37 42 45 45 45 44 43 42 39 36 36 36 35 34 35 36 35 34 31 27 24 23 20 18 16 15 14 14 16 17 17 18 19 19 21 21 22 23
5 6 6 6 5 2 1 4 6 5 6 6 5 4 12 16 15 12 11 13 14 12 7 4 4 3 5 8 9 9 11 14 16 20 20 18 18 18 18 18 18 21 21 21 20 19 20 22 25 30 34 39 43 42 38 36 34 35 37 38 37 36 36 36 36 35 32 29 26 24 22 20 18 16 16 16 17 18 18 19 20 21 22 22 23 24
7 7 5 3 2 2 2 5 6 7 7 2 3 3 3 9 13 15 15 16 17 15 10 5 4 4 7 11 12 12 14 15 16 18 18 17 17 17 17 17 18 19 18 15 13 14 14 14 16 19 23 28 33 33 32 31 31 33 35 37 38 37 36 36 36 36 34 30 27 25 24 22 20 18 18 18 18 19 19 20 21 22 22 23 24 25
7 7 3 2 3 3 3 7 6 3 2 2 2 1 2 3 6 10 12 14 15 14 12 11 9 4 6 10 11 7 9 10 10 14 17 17 17 17 16 17 17 16 15 14 14 14 13 13 14 15 16 19 23 26 27 27 27 28 31 34 36 37 36 35 37 37 35 32 28 26 25 24 22 20 20 20 19 20 20 21 22 23 23 24 25 26
3 4 2 3 4 3 3 6 2 5 5 4 4 5 6 5 6 8 8 8 9 10 11 11 9 5 6 8 9 7 6 4 5 12 17 19 18 17 16 16 16 15 14 13 13 13 13 14 15 15 16 17 19 21 21 21 22 23 27 30 33 34 35 36 37 37 36 33 29 27 26 25 23 22 21 21 21 21 21 22 23 24 24 25 25 26
1 1 1 3 3 2 3 4 2 3 7 4 4 5 4 3 6 6 3 3 2 8 14 13 10 8 8 8 9 9 5 2 4 9 14 17 17 18 17 16 15 15 15 14 14 15 16 17 17 17 17 17 18 18 17 18 18 19 21 24 28 32 35 36 36 36 36 34 30 28 28 26 25 24 23 22 22 22 23 23 24 25 25 25 26 27
2 0 0 2 2 3 3 4 4 5 5 1 1 1 2 7 10 8 1 3 3 9 18 17 11 9 11 13 15 12 5 4 5 6 9 10 11 14 16 16 16 16 17 17 16 17 17 18 18 18 18 18 18 18 18 19 19 20 21 22 25 30 33 34 34 34 34 34 31 30 29 28 27 26 24 23 23 23 24 25 25 25 26 25 26 27
2 2 2 4 4 5 6 5 4 4 2 1 0 1 4 9 10 6 2 3 3 9 16 17 13 11 15 21 18 10 5 7 5 5 7 8 8 12 14 15 17 17 17 17 17 17 17 17 18 18 17 17 17 18 19 20 21 22 23 23 24 27 29 29 29 29 31 32 32 31 31 29 27 26 24 23 24 25 25 26 26 26 26 26 27 28
2 1 2 5 6 7 8 6 4 4 2 2 3 6 9 7 5 4 3 2 7 12 16 18 17 14 18 23 20 12 13 14 7 3 5 9 11 13 15 16 17 17 16 17 17 16 16 15 15 15 15 15 16 17 19 20 22 24 24 24 24 25 25 24 24 26 29 31 32 32 31 29 27 25 24 24 25 26 27 27 28 28 27 27 28 28
3 2 2 4 5 5 6 5 4 4 3 6 6 7 8 5 2 3 4 8 13 15 16 18 17 15 18 23 23 20 19 16 10 6 7 10 12 13 15 17 17 17 17 17 16 14 14 13 13 13 13 14 16 17 19 21 22 23 24 25 26 25 22 21 22 25 28 29 30 31 30 28 26 25 25 25 26 27 28 28 29 29 28 28 28 28
5 4 3 4 4 2 2 5 5 4 4 15 15 6 3 3 4 8 11 12 12 13 18 21 18 16 18 20 22 22 17 12 11 11 10 12 13 14 16 16 16 16 16 14 13 12 11 11 12 12 12 13 15 18 20 21 23 24 26 27 26 23 21 21 23 25 26 27 28 28 28 27 26 26 26 26 26 27 28 29 29 29 29 28 28 28
4 4 4 4 4 4 4 6 3 2 9 23 16 4 6 8 10 14 14 12 12 13 18 22 18 17 20 18 17 19 16 12 12 12 13 15 16 16 17 16 15 15 13 11 11 11 11 12 13 13 13 14 15 18 20 23 24 26 28 28 26 24 23 24 25 26 27 28 29 29 29 28 28 28 27 27 27 28 29 29 29 29 29 28 28 28
3 3 2 2 3 3 1 2 0 2 17 25 9 4 10 15 13 12 11 11 15 16 17 20 20 19 21 18 15 15 15 14 13 14 15 17 18 18 17 17 16 14 12 12 12 12 13 14 15 15 15 15 16 18 20 23 25 28 29 28 27 26 26 26 26 28 28 29 30 31 31 30 30 29 28 28 28 28 29 29 29 29 28 27 28 29
0 2 1 0 2 1 2 2 2 2 14 21 8 6 14 18 14 11 9 11 16 17 16 18 19 18 19 18 16 15 15 15 15 16 17 18 19 19 18 17 17 15 14 15 14 14 16 16 17 18 19 19 20 20 21 23 26 29 30 30 30 30 29 28 29 29 29 30 32 33 33 32 31 31 30 29 29 29 29 29 29 28 27 27 27 28
1 3 3 0 2 3 1 3 3 1 8 19 14 6 11 16 16 14 10 11 14 16 16 17 16 15 16 16 16 15 14 13 15 17 18 19 20 20 19 19 19 18 18 17 17 17 18 19 20 22 23 23 24 22 22 25 27 29 31 32 33 34 33 32 32 32 31 32 33 34 35 34 33 32 31 30 30 29 29 29 28 28 27 26 27 28
3 7 5 1 1 2 1 1 1 1 5 16 19 13 11 14 16 15 13 12 14 14 15 16 15 15 15 15 16 16 14 14 15 16 18 20 21 21 21 22 21 20 20 19 19 19 20 22 23 25 26 27 26 25 26 27 28 29 31 33 35 37 37 37 36 35 35 35 35 36 37 36 35 34 32 31 30 30 29 28 28 27 26 25 27 28
5 7 4 2 2 2 1 1 2 0 0 9 18 19 16 13 13 14 14 14 15 14 14 15 15 15 16 16 16 16 16 15 14 14 16 20 22 23 24 23 21 20 20 20 20 20 21 23 25 26 27 28 27 27 29 29 29 30 31 32 35 37 38 39 39 39 39 39 38 39 39 38 37 36 34 32 31 30 29 28 27 26 25 26 28 29
5 4 3 3 3 2 2 6 8 4 1 7 16 19 17 15 13 13 13 14 15 15 15 15 16 18 19 18 17 17 17 15 14 14 16 19 21 23 24 24 22 21 20 20 20 22 24 25 26 26 27 28 28 29 31 32 32 32 32 33 34 36 37 39 40 41 42 42 42 42 41 40 40 38 36 33 32 31 30 28 27 25 26 29 30 30
7 6 5 4 2 2 5 12 15 8 2 7 13 14 14 15 14 14 14 14 15 15 15 16 18 19 19 19 18 17 17 16 15 16 17 18 19 21 23 25 25 25 23 22 22 24 26 27 27 28 29 29 29 30 32 33 34 34 34 34 35 36 36 37 39 41 43 44 45 44 43 42 42 40 37 34 32 31 30 28 26 25 27 30 31 30
Wind_Direction
179 190 208 223 211 195 199 204 211 68 82 119 154 234 253 258 267 210 130 59 39 271 259 252 266 270 253 192 161 157 166 179 185 189 194 189 189 192 187 185 182 182 180 170 162 157 154 151 143 141 143 138 133 130 124 120 119 119 119 118 112 107 107 107 108 110 108 109 117 134 151 153 136 121 114 116 110 93 102 116 251 265 271 284 296 303
180 217 228 225 177 179 199 194 165 125 146 187 223 242 249 249 261 239 128 95 107 252 260 252 263 267 262 177 137 162 183 196 201 199 202 193 189 190 185 186 184 180 175 168 162 159 155 149 145 145 147 145 140 136 132 128 127 124 123 121 110 107 109 108 109 109 104 107 114 124 134 133 124 117 112 105 95 88 90 92 90 89 82 70 53 47
200 231 232 167 102 114 143 168 189 207 209 211 222 246 255 246 263 259 149 116 185 230 257 294 273 268 262 148 135 178 192 201 211 213 212 197 192 191 185 185 182 177 170 165 162 159 153 149 149 149 148 148 145 142 140 136 132 131 128 123 116 112 112 107 106 105 102 102 103 104 109 114 114 111 105 96 89 85 86 87 85 82 77 72 67 64
203 241 229 134 133 142 131 168 187 198 218 218 212 233 243 213 229 252 158 116 188 230 295 330 291 273 260 175 148 172 184 191 204 213 214 203 201 198 193 189 180 175 168 162 160 155 152 152 150 151 149 147 146 142 140 135 130 129 124 120 117 114 111 106 104 102 100 99 98 98 101 105 104 98 93 89 86 84 83 81 78 75 71 66 64 60
211 335 131 146 160 171 155 162 181 197 220 216 214 229 241 221 223 242 79 97 209 205 236 286 285 275 253 226 195 155 168 186 185 197 207 206 207 203 199 193 182 173 167 161 159 155 153 152 149 149 147 143 140 136 133 131 127 124 121 117 115 112 107 104 101 98 96 95 94 95 96 95 92 89 88 87 85 82 77 74 71 68 65 61 58 55
231 101 131 149 165 179 172 178 191 203 223 224 217 223 237 241 233 227 134 213 257 233 187 233 267 263 201 235 225 150 169 188 176 194 204 203 204 202 198 192 183 173 166 161 158 156 152 149 148 146 143 139 136 133 130 128 125 121 118 115 112 109 105 101 98 94 92 91 90 88 87 88 90 94 95 89 83 78 70 68 67 64 62 57 53 51
219 130 137 151 165 172 189 211 193 189 224 247 218 214 228 237 234 210 183 200 255 268 92 229 256 256 253 247 195 151 194 194 186 207 207 204 202 200 197 190 182 172 165 160 156 154 150 147 145 142 139 137 134 131 128 125 121 118 115 114 112 109 106 103 99 96 92 90 89 87 89 93 96 99 98 91 82 76 69 65 64 61 59 55 51 48
145 153 155 158 162 171 201 220 181 179 216 241 82 188 203 207 210 204 197 208 249 323 125 200 233 267 271 261 127 144 215 215 206 209 207 207 204 198 195 188 179 171 164 160 155 152 149 146 143 140 138 135 132 128 125 123 120 118 117 115 115 113 110 107 103 101 96 93 94 96 99 105 107 106 102 96 85 78 72 64 61 57 53 51 48 46
139 174 187 175 175 197 207 212 162 178 212 286 73 118 158 176 191 186 195 216 245 304 243 202 168 252 257 224 137 148 231 245 220 202 199 203 200 194 192 187 179 172 165 159 155 152 149 147 143 141 139 135 132 129 127 125 124 123 122 120 120 117 114 111 109 108 107 107 110 113 114 114 112 108 101 96 90 83 75 65 60 55 50 48 45 43
62 194 199 181 192 206 170 37 152 187 203 134 125 98 92 84 92 136 202 201 161 234 246 209 174 225 264 207 184 177 233 246 221 190 192 193 192 191 188 185 179 173 167 161 157 154 151 149 146 143 141 137 135 133 131 130 129 129 127 127 126 122 119 118 119 123 126 128 128 123 118 110 105 101 97 95 92 85 77 67 60 53 47 44 39 36
51 49 203 197 208 146 106 58 28 47 134 139 139 108 97 88 90 106 178 161 210 236 241 214 186 211 261 211 201 206 214 225 171 166 182 182 186 188 185 185 181 174 169 164 160 157 154 152 150 147 144 142 140 138 138 137 135 134 133 134 134 130 128 130 133 138 140 136 130 123 115 103 96 96 96 95 91 87 79 64 55 47 41 36 30 27
102 171 173 188 164 117 106 85 46 41 130 154 155 140 130 120 142 170 150 173 242 235 198 186 181 213 239 218 206 204 139 152 159 172 180 178 182 184 185 186 182 176 172 168 164 161 158 157 154 152 150 148 148 147 146 145 143 142 141 145 147 141 140 142 143 145 143 137 130 120 112 101 98 99 98 94 89 84 71 53 44 37 30 25 20 17
197 200 153 144 165 162 147 109 83 69 199 210 169 164 184 189 178 216 196 194 242 230 100 69 154 219 240 241 253 251 153 160 168 165 180 178 178 180 184 186 182 178 176 172 168 165 163 162 160 158 156 155 155 154 154 153 152 152 151 156 158 150 147 148 147 147 144 138 130 121 116 109 108 109 105 95 86 76 59 45 36 26 20 15 8 4
204 205 156 167 188 191 185 165 165 176 187 196 181 179 196 186 194 223 202 226 260 218 76 95 176 225 251 248 259 266 85 92 93 93 184 179 177 179 184 185 183 181 180 176 172 170 168 167 164 163 161 162 162 160 161 160 160 161 159 163 167 157 153 153 152 151 148 142 136 132 130 126 124 123 115 103 86 67 47 34 20 8 4 360 354 351
216 253 178 177 166 177 192 201 163 142 165 193 190 196 210 198 213 225 206 234 264 118 107 134 190 208 201 164 293 334 46 63 95 137 175 175 176 180 183 184 184 184 183 180 177 174 172 170 168 168 168 167 167 166 167 167 166 167 165 167 173 167 159 160 159 156 154 152 148 148 149 145 143 141 130 114 76 37 7 356 349 344 343 341 339 337
224 267 165 143 127 164 183 195 104 121 159 189 73 222 237 232 218 252 296 343 52 39 182 185 228 234 198 121 95 72 78 117 116 131 160 169 176 180 183 186 187 187 186 184 181 178 176 175 174 173 174 173 173 173 174 174 172 173 172 170 176 176 169 167 166 164 164 165 163 162 163 161 163 169 173 181 254 326 323 322 321 320 321 320 320 318
210 273 95 77 91 167 180 146 129 158 165 148 175 199 215 312 51 136 220 65 57 269 228 177 225 248 221 219 132 118 152 156 151 158 164 167 173 180 186 189 191 191 190 187 184 181 179 179 179 178 179 179 178 178 179 180 179 179 180 178 179 182 179 175 174 173 174 176 174 173 176 181 186 190 195 209 260 289 292 298 302 305 308 310 311 312
199 232 125 141 165 169 67 106 98 2 121 140 188 188 140 1 321 216 243 162 182 254 253 182 217 212 190 212 131 138 180 187 188 176 167 172 177 185 192 194 194 193 192 190 187 185 184 183 183 183 183 183 183 184 184 185 186 185 186 187 188 190 187 183 182 181 182 183 184 186 189 193 194 197 212 237 257 267 277 291 300 305 310 313 314 315
204 226 154 122 177 122 123 157 136 94 259 190 190 163 128 221 206 176 227 234 201 241 259 196 215 219 204 196 165 183 197 195 190 177 173 184 187 191 195 197 197 196 195 193 190 189 188 188 187 185 185 186 187 189 189 189 190 190 190 192 194 196 194 191 190 189 189 190 192 196 196 198 202 213 227 237 245 260 279 294 302 307 312 315 317 318
186 232 210 103 15 113 147 206 192 178 189 352 154 171 215 267 217 173 194 227 215 237 258 218 207 211 209 192 176 190 199 187 179 178 188 194 193 195 197 198 199 198 197 195 193 192 192 191 189 187 188 190 191 193 193 194 194 194 194 194 195 197 198 197 196 195 196 197 198 200 202 205 212 219 226 232 243 264 283 293 302 308 312 316 318 320
142 231 219 113 62 178 183 208 206 183 170 174 181 183 188 188 291 258 227 182 227 241 243 254 257 207 181 187 184 190 194 179 176 179 189 196 199 200 200 200 200 199 198 197 195 195 195 192 190 190 192 195 196 196 197 198 198 198 198 198 200 201 202 202 201 200 202 202 203 204 207 211 217 221 225 231 245 266 283 295 306 311 314 318 319 320
173 201 191 148 179 204 208 280 301 228 192 189 190 186 186 177 156 209 223 183 199 247 224 251 274 233 145 162 203 188 168 166 176 178 183 197 203 204 204 204 203 201 201 199 198 199 197 193 191 192 195 198 200 200 200 201 202 201 201 203 204 205 206 206 206 205 206 208 208 209 211 216 220 221 223 233 251 274 292 304 312 315 316 318 318 317
139 141 167 165 199 215 289 4 341 298 300 291 249 206 192 185 174 198 221 179 161 223 140 6 279 272 119 110 93 74 23 53 186 191 192 201 206 208 208 207 206 205 204 203 202 202 199 196 194 195 198 202 203 203 203 204 204 204 205 206 207 208 208 208 209 210 211 211 211 212 215 218 218 219 225 241 261 285 302 308 312 314 314 315 314 313
121 173 182 172 231 188 355 235 231 321 300 249 246 213 202 212 195 203 223 154 180 196 153 184 251 236 127 136 103 71 354 275 206 206 208 211 212 213 213 211 209 208 208 207 206 205 202 199 198 200 202 205 206 206 206 206 206 206 207 208 209 210 210 210 211 213 214 214 214 215 216 216 216 220 231 250 272 292 303 308 311 312 312 311 309 309
166 185 176 169 195 196 195 209 214 210 201 223 229 180 202 212 177 143 100 139 230 200 163 201 245 200 135 155 137 128 205 225 218 214 215 218 221 221 219 216 212 209 210 210 210 208 205 202 202 204 206 208 209 209 208 209 209 209 210 211 211 212 212 213 214 215 216 215 215 216 216 215 217 225 240 258 281 297 304 309 310 309 309 308 307 309
171 187 179 186 202 201 202 213 208 186 174 211 194 169 201 201 178 171 168 196 228 178 164 207 236 153 111 193 196 172 173 234 223 218 222 223 225 227 223 218 213 211 212 213 212 210 207 206 206 207 209 211 211 211 210 211 211 211 212 213 213 214 215 217 217 217 217 216 215 216 216 216 221 232 248 267 287 300 305 308 309 308 308 309 310 312
154 251 203 214 223 212 216 251 149 125 155 203 199 181 195 200 190 187 203 213 199 146 194 220 217 206 198 193 205 185 171 222 216 203 222 226 227 228 225 221 216 213 214 215 214 213 210 209 209 210 212 213 213 213 213 213 214 214 214 214 214 215 217 219 219 218 218 217 216 217 217 219 227 238 255 274 289 297 302 306 308 309 310 312 314 315
124 224 211 226 239 237 19 328 196 161 186 208 204 194 198 196 189 194 213 208 144 155 236 213 185 218 207 178 197 193 178 215 218 202 223 228 229 226 222 221 218 216 216 216 216 215 213 212 212 213 214 215 215 215 215 216 216 216 217 216 216 217 219 221 220 220 220 218 217 218 219 223 231 243 259 275 285 293 299 304 306 310 314 316 317 317
151 226 213 216 237 246 38 301 250 201 201 210 205 203 201 191 189 200 214 203 155 200 241 163 169 216 203 172 193 191 181 202 211 217 223 225 226 222 214 213 215 215 217 218 220 219 217 216 216 215 217 217 216 216 216 217 218 218 217 217 218 221 222 222 222 222 221 220 219 221 222 226 235 246 260 273 282 291 297 299 303 309 315 318 319 318
176 221 207 189 231 242 218 197 228 206 213 221 210 210 205 198 196 201 212 208 196 224 237 152 186 229 192 156 187 197 198 205 209 216 218 213 214 211 207 210 214 216 220 222 224 224 222 220 219 219 220 220 218 218 218 219 219 219 218 219 221 223 224 224 224 224 222 221 223 223 224 229 236 247 260 271 282 290 293 294 299 306 314 319 320 319
199 208 171 155 226 236 208 183 173 196 212 234 228 223 204 192 195 204 216 212 210 232 236 162 220 246 170 146 171 185 192 197 200 207 207 205 205 202 205 213 219 222 225 227 230 230 227 224 222 222 223 222 221 221 221 223 223 222 222 223 223 224 225 226 225 225 223 223 225 226 227 232 237 247 259 270 281 287 289 291 296 302 310 317 320 320
200 205 116 154 219 227 193 186 190 153 31 277 254 232 179 164 186 203 215 206 202 222 227 220 244 246 159 151 160 166 179 186 194 199 201 206 208 208 215 221 226 229 232 235 236 235 232 229 227 227 226 225 225 225 226 228 226 225 227 229 227 226 226 226 226 226 224 225 227 228 229 234 239 248 258 268 278 282 285 289 293 298 305 312 318 319
182 184 149 180 211 222 174 185 178 128 91 253 252 220 181 185 197 196 207 212 206 209 212 225 240 228 141 152 160 164 183 194 199 201 205 212 213 215 222 226 232 238 240 242 242 241 241 239 236 234 232 230 229 229 231 232 232 233 236 237 234 229 226 227 227 226 225 226 229 229 231 236 240 247 258 266 275 279 281 286 289 293 299 307 315 318
169 186 191 191 203 214 143 137 146 172 211 234 270 216 189 195 194 191 209 216 211 210 213 235 241 184 148 162 173 186 200 205 211 214 217 220 217 218 224 228 235 240 240 241 239 237 239 240 239 240 239 237 235 234 236 239 240 242 243 240 237 232 228 228 228 226 226 227 230 230 233 237 240 247 257 264 271 275 278 282 286 290 295 304 312 316
169 185 193 179 167 154 122 133 163 210 224 214 2 336 220 194 192 201 218 222 216 215 218 228 220 175 167 180 186 195 202 206 217 222 222 224 225 226 228 229 233 233 230 227 224 223 225 225 228 233 235 237 236 235 236 239 241 242 241 238 235 232 229 229 228 227 227 228 230 232 235 238 241 247 256 262 268 273 276 280 284 288 294 302 309 314
170 178 167 142 150 121 147 182 194 250 265 132 91 12 60 118 175 201 226 235 225 214 212 219 219 185 157 178 179 179 193 205 225 229 223 225 229 229 227 228 230 230 228 230 232 232 231 229 228 226 224 225 226 227 230 233 235 236 236 236 234 232 231 230 229 228 228 229 231 234 237 240 243 248 254 260 267 271 274 279 283 287 293 300 306 311
173 178 157 176 182 135 172 206 249 334 291 221 160 172 177 163 164 182 217 240 222 201 197 208 218 193 147 159 162 153 167 197 249 249 238 234 234 231 229 230 231 231 232 231 227 224 223 224 223 221 219 219 220 223 227 230 231 232 233 233 233 232 231 231 230 229 229 230 233 236 240 243 246 249 253 259 266 270 273 278 282 286 291 298 304 308
157 194 183 198 194 127 167 218 254 281 260 239 156 169 185 166 146 150 190 260 218 185 184 190 213 202 150 139 152 149 148 208 263 257 249 243 238 233 230 226 222 221 219 215 214 215 216 219 221 221 223 222 224 227 229 231 233 234 234 233 230 229 229 230 230 230 230 232 234 239 244 247 248 250 253 259 266 269 272 276 280 284 289 295 301 305
112 77 161 203 193 159 190 226 223 230 255 286 106 132 130 139 129 110 119 249 196 186 186 188 204 195 156 157 162 152 152 229 238 244 246 243 232 222 218 213 207 207 207 208 212 215 217 219 221 223 226 227 229 232 233 236 238 239 239 237 231 227 227 229 231 232 233 234 237 242 246 249 250 250 253 261 266 269 272 275 278 282 287 293 299 302
157 172 198 214 209 199 211 228 235 247 273 57 167 206 148 147 138 126 234 249 178 184 187 188 199 193 170 169 166 155 188 217 228 256 238 217 199 194 195 197 198 200 204 205 208 211 213 216 219 222 227 230 233 237 238 239 240 240 240 238 232 228 228 230 234 236 236 237 240 244 248 249 249 251 255 262 267 269 272 274 276 281 286 291 296 299
171 178 196 216 222 217 216 225 247 255 227 155 181 170 145 133 147 182 215 173 166 182 184 186 199 199 179 174 173 187 218 219 223 250 205 184 182 181 180 185 190 193 198 200 203 207 211 216 221 226 231 233 234 236 236 237 238 237 236 233 230 229 229 232 235 237 238 240 242 247 250 249 249 251 257 263 268 270 272 274 276 281 285 289 293 296
165 153 190 219 224 217 220 233 251 256 190 136 141 157 149 139 181 188 146 142 160 175 181 187 200 203 191 191 196 207 220 222 218 208 185 181 185 182 179 182 187 192 197 200 205 211 215 223 230 233 237 237 235 233 232 233 235 235 233 230 229 229 228 230 234 238 240 242 245 247 248 248 248 252 258 264 267 269 272 274 276 280 283 287 290 293
165 158 185 211 195 170 232 220 225 272 164 138 131 132 193 197 148 134 136 148 162 173 181 188 200 204 197 202 210 215 221 220 208 202 194 188 185 184 186 189 192 197 202 206 213 223 230 239 244 244 244 241 237 233 230 231 232 232 232 231 229 227 226 229 235 239 241 243 244 246 246 247 248 253 258 263 266 268 271 274 276 279 281 284 288 291
181 175 195 210 179 164 211 208 212 332 163 156 144 134 194 175 136 133 144 164 180 186 187 189 197 200 195 197 206 211 214 212 205 203 200 195 191 191 194 198 201 205 209 215 224 233 241 248 251 251 249 243 239 235 232 232 232 232 232 232 228 225 228 232 235 237 239 240 242 243 245 246 248 252 256 260 262 266 269 272 275 277 279 282 287 290
198 171 176 209 181 161 189 202 24 99 167 167 147 63 159 160 143 143 158 176 181 184 188 190 191 191 190 192 198 205 211 217 217 215 212 207 204 202 204 208 211 212 216 223 230 237 242 247 249 248 248 248 246 241 237 236 236 235 234 232 229 229 232 234 235 236 237 239 240 242 243 244 246 250 253 256 259 263 267 271 273 275 278 282 286 289
61 108 112 86 173 156 60 119 104 122 174 178 163 91 149 163 160 160 176 185 182 181 184 188 191 192 192 196 202 208 215 221 225 227 225 219 214 211 214 218 217 218 223 226 231 237 241 244 245 245 246 249 249 246 242 240 239 238 238 235 232 233 237 238 237 238 239 240 242 242 243 244 245 248 251 253 257 261 265 269 272 274 277 282 287 289
201 167 169 131 181 188 150 140 125 42 192 193 192 157 157 173 176 175 182 186 185 188 190 190 193 196 200 206 213 217 222 227 229 232 233 229 221 215 218 223 222 224 228 231 234 240 243 245 246 246 245 246 247 247 246 244 242 241 241 238 235 237 239 241 242 243 243 244 245 244 243 243 244 246 249 252 256 260 264 267 271 274 278 284 288 289
174 165 174 209 182 163 108 127 135 356 204 202 204 199 188 190 191 190 193 194 193 197 200 199 199 203 210 219 223 225 229 232 233 237 239 236 229 222 221 225 226 229 234 238 242 246 250 252 252 249 248 247 246 245 245 245 245 243 243 242 241 241 242 244 246 247 247 248 248 248 246 244 244 246 249 252 255 259 262 266 270 274 280 286 288 288
134 155 172 153 124 123 65 184 187 78 203 209 208 206 205 209 206 202 205 209 208 208 208 209 212 217 223 227 229 232 236 238 242 246 246 242 236 230 227 228 230 235 239 243 247 251 254 256 256 254 253 252 250 247 245 245 245 244 244 246 247 247 248 249 250 250 250 251 251 250 248 245 243 245 247 250 254 258 261 265 269 275 283 289 288 286
144 167 165 126 148 187 188 177 176 158 82 206 203 203 208 214 215 214 217 222 224 225 225 224 226 229 232 234 237 240 244 250 256 257 254 249 243 238 236 234 235 239 242 246 251 253 254 256 257 256 256 256 254 251 250 248 246 244 244 245 248 250 252 253 254 254 254 254 253 252 250 246 244 244 245 249 253 256 259 263 267 275 286 290 286 283
188 196 173 152 167 207 177 178 182 180 187 201 198 200 207 213 217 221 223 228 234 237 239 241 241 242 245 247 247 248 252 259 264 264 262 258 251 246 242 239 239 243 248 253 255 255 255 257 257 257 259 261 259 257 256 254 251 247 246 245 247 249 252 254 255 256 257 257 256 254 252 248 245 243 244 247 251 255 258 262 266 276 286 287 283 281